STARLINK-1347, 45586

Orbit data source: Space-Track

STARLINK-1347, 45586 is a payload satellite owned by SpaceX/Seattle (US) in LEO that was launched on Wed, 22 Apr 2020 UTC via an FALCON 9 launch vehicle from the Air Force Eastern Test Range (AFETR). Payloads include a variety of satellites, spacecraft, and rockets equipped with specific instruments for various scientific and technological missions. These include communications satellites like Starlink; space stations such as the ISS; scientific satellites like the Hubble; Earth observation satellites from companies like Planet Labs, Umbra, and HawkEye 360; GPS; miniature CubeSats for education and research; and military/defense satellites.

Loading next visibility...
STARLINK-1347 details
Identifier
45586, 2020-025BH
Orbit
LEO
Last TLE update10 hours ago
Origin
Flag of USSpaceX/Seattle (US)
ManufacturerSpaceX/Seattle
MissionOperational Commercial Communications
Bus & MotorSTARLINK, Unknown motor
Mass260 kg wet, ~248 kg dry
Launch date (UTC)
2020-04-22 (5 years ago)
Launch vehicle
FALCON 9
Launch site
Air Force Eastern Test Range (AFETR)
Object type
Payload
Rocket body
Debris
Shape & HBRBox + 1 Pan, 8.86 m
Radar Cross Section13.562 m², Large (>1 m²)

Expand to show TLE details & history

TLE from 10 hours ago
0 STARLINK-1347
1 45586U 20025BH  24361.05882121  .00016392  00000-0  11162-2 0  9994
2 45586  53.0536 245.7073 0001364  92.2292 267.8854 15.06419134258784
Epoch: 2024-12-26T01:24Z
Definitive object data (Epoch: 2024-12-26T01:24:42.152Z)
Latitude0.00004°
Longitude129.48804°
Altitude548.067 km
Speed7.589 km/s
True Right ascension16h 22m 49s
True Declination0° 00' 00"
Sunlit
Object was in daylight at TLE epoch
Visualization TLE readout
Latitude-13.77462°
Longitude-41.8967°
Altitude551.005 km
Speed7.587 km/s
Apparent Right ascension02h 38m 07s
Apparent Declination-33° 40' 55"
Sunlit
Object is in full shadow
Visualization observer readout
Local Sidereal Time11:11:37
Azimuth261.81° W
Elevation-48.769°
Doppler factor1
Orbital elements
Apogee altitude548.368 km
Perigee altitude546.479 km
Semi-major axis6,925.561 km
Eccentricity0.0001364
Inclination53.0536°
RAAN245.7073°
Arg. of periapsis92.2292°
True anomaly267.86978°
Mean anomaly267.8854°
Eccentric anomaly267.87759°
Mean motion3.76583 °/min
BSTAR0.0011162
Orbital period95.6 mins
Loading maneuver chart data...
Loading historical data...
Loading historical data...
Loading historical data...
Loading historical data...
Loading historical data...
Loading historical data...
Loading historical data...

STARLINK-1347 Visibility forecast

Observer location: undefined°, undefined

Span
Click to sort rows by Start time (UTC) header in descending order
Start Az.
Max El. time (UTC)
Max El. Az.
Max El.
End time (UTC)
End Az.
8 mins2024-12-26 19:05:12.591Z220.675° SW2024-12-26 19:09:12.591Z140.787° SSE43.256°2024-12-26 19:13:12.591Z54.383° ENE
5 mins2024-12-26 20:47:12.591Z297.398° NW2024-12-26 20:49:12.591Z338.852° N22.127°2024-12-26 20:52:12.591Z29.054° NE
4 mins2024-12-27 00:09:12.591Z352.337° N2024-12-27 00:10:12.591Z10.238° NNE17.482°2024-12-27 00:13:12.591Z60.694° ENE
6 mins2024-12-27 01:48:12.591Z317.766° NNW2024-12-27 01:51:12.591Z81.753° E41.533°2024-12-27 01:54:12.591Z120.867° SE
|